Mobile, AL

12:48 PM CST on January 22, 2017 (GMT -0600)
Mobile Regional

Weather History for KMOB - February, 2014

Change the Weather History Date:

Friday, February 21, 2014

  Actual Average Record
Temperature  
Mean Temperature 56 °F 55 °F  
Max Temperature 70 °F 66 °F 79 °F (2005)
Min Temperature 41 °F 45 °F 28 °F (1978)
Degree Days  
Heating Degree Days 9 10  
Month to date heating degree days 266 256  
Since 1 July heating degree days 1631 1377  
Cooling Degree Days 0 0  
Month to date cooling degree days 7 0  
Year to date cooling degree days 7 7  
Growing Degree Days 6 (Base 50)    
Moisture  
Dew Point 45 °F    
Average Humidity 62    
Maximum Humidity 100    
Minimum Humidity 24    
Precipitation  
Precipitation 1.37 in 0.19 in 4.22 in (1887)
Month to date precipitation 2.97 3.82  
Year to date precipitation 5.89 9.47  
Snow  
Snow 0.00 in 0.00 in - ()
Month to date snowfall T 0.1  
Since 1 July snowfall 1.3 0.1  
Snow Depth 0.00 in    
Sea Level Pressure  
Sea Level Pressure 30.01 in    
Wind  
Wind Speed 12 mph (NNW)    
Max Wind Speed 31 mph    
Max Gust Speed 46 mph    
Visibility 8 miles    
Events Rain , Thunderstorm    
T = Trace of Precipitation, MM = Missing Value Source: NWS Daily Summary

Daily Weather History Graph

Daily Weather History Graph

Search for Another Location

Airport or City:

Trip Planner

Search our weather history database for the weather conditions in past years. The results will help you decide how hot, cold, wet, or windy it might be!

Date:

Astronomy

Feb. 21, 2014 Rise Set
Actual Time 6:27 AM CST 5:45 PM CST
Civil Twilight 6:03 AM CST 6:10 PM CST
Nautical Twilight 5:35 AM CST 6:38 PM CST
Astronomical Twilight 5:07 AM CST 7:06 PM CST
Moon No Moon Rise 10:19 AM CST (2/21)
Length of Visible Light 12h 06m
Length of Day
11h 17m
Waning Gibbous, 60% of the Moon is Illuminated
Feb 21
Waning Gibbous
Feb 22
Last Quarter
Mar 1
New
Mar 8
First Quarter
Mar 16
Full

Hourly Weather History & Observations

Time (CST) Temp. Windchill Dew Point Humidity Pressure Visibility Wind Dir Wind Speed Gust Speed Precip Events Conditions
12:17 AM 69.1 °F - 69.1 °F 100% 29.89 in 8.0 mi South 11.5 mph 21.9 mph N/A   Overcast
12:56 AM 69.1 °F - 69.1 °F 100% 29.87 in 8.0 mi South 19.6 mph 27.6 mph N/A   Overcast
1:16 AM 70.0 °F - 69.1 °F 97% 29.87 in 8.0 mi South 19.6 mph 25.3 mph 0.00 in Rain , Thunderstorm Light Rain
1:26 AM 70.0 °F - 69.1 °F 97% 29.87 in 9.0 mi South 19.6 mph 25.3 mph 0.00 in   Overcast
1:36 AM 70.0 °F - 69.1 °F 97% 29.86 in 7.0 mi South 20.7 mph 27.6 mph 0.00 in Rain , Thunderstorm Rain
1:43 AM 70.0 °F - 69.1 °F 97% 29.84 in 6.0 mi South 17.3 mph 28.8 mph 0.01 in Rain , Thunderstorm Thunderstorms and Rain
1:56 AM 70.0 °F - 70.0 °F 100% 29.88 in 1.8 mi WSW 15.0 mph 26.5 mph 0.13 in Rain , Thunderstorm Heavy Thunderstorms and Rain
2:00 AM 69.1 °F - 69.1 °F 100% 29.91 in 0.8 mi West 25.3 mph 42.6 mph 0.08 in Rain , Thunderstorm Heavy Thunderstorms and Rain
2:14 AM 64.0 °F - 64.0 °F 100% 29.90 in 1.0 mi WSW 26.5 mph 43.7 mph 0.89 in Rain , Thunderstorm Heavy Thunderstorms and Rain
2:26 AM 64.9 °F - 64.9 °F 100% 29.91 in 2.0 mi WNW 15.0 mph 32.2 mph 1.06 in Rain , Thunderstorm Heavy Thunderstorms and Rain
2:32 AM 64.0 °F - 64.0 °F 100% 29.90 in 3.0 mi NW 13.8 mph 24.2 mph 1.11 in Rain , Thunderstorm Heavy Thunderstorms and Rain
2:56 AM 64.0 °F - 64.0 °F 100% 29.92 in 10.0 mi NW 10.4 mph 23.0 mph 1.18 in Rain , Thunderstorm Light Thunderstorms and Rain
3:04 AM 57.9 °F - 55.0 °F 90% 29.95 in 10.0 mi NW 26.5 mph 41.4 mph 0.00 in Rain , Thunderstorm Light Rain
3:13 AM 55.0 °F - 53.1 °F 93% 29.97 in 10.0 mi NW 23.0 mph 41.4 mph 0.00 in Rain Light Rain
3:20 AM 54.0 °F - 51.1 °F 90% 29.99 in 10.0 mi NW 20.7 mph 31.1 mph 0.00 in Rain Light Rain
3:49 AM 52.0 °F - 52.0 °F 100% 30.00 in 10.0 mi NW 12.7 mph 24.2 mph 0.05 in Rain Light Rain
3:56 AM 52.0 °F - 52.0 °F 100% 29.99 in 10.0 mi NNW 13.8 mph 20.7 mph 0.05 in Rain Light Rain
4:18 AM 52.0 °F - 51.1 °F 97% 30.00 in 10.0 mi NNW 23.0 mph 34.5 mph 0.00 in Rain Light Rain
4:28 AM 52.0 °F - 50.0 °F 93% 30.01 in 10.0 mi NNW 23.0 mph 32.2 mph 0.00 in Rain Light Rain
4:56 AM 51.1 °F - 44.1 °F 77% 30.02 in 10.0 mi NNW 28.8 mph 42.6 mph 0.01 in   Mostly Cloudy
5:07 AM 50.0 °F - 39.9 °F 68% 30.03 in 10.0 mi North 19.6 mph 31.1 mph N/A   Overcast
5:56 AM 48.9 °F - 37.0 °F 64% 30.06 in 7.0 mi North 19.6 mph 25.3 mph 0.00 in Rain Light Rain
6:56 AM 48.0 °F - 36.0 °F 63% 30.07 in 7.0 mi North 13.8 mph - 0.00 in   Mostly Cloudy
7:56 AM 50.0 °F - 35.1 °F 57% 30.08 in 10.0 mi North 18.4 mph 27.6 mph N/A   Mostly Cloudy
8:56 AM 53.1 °F - 32.0 °F 45% 30.12 in 10.0 mi NNE 25.3 mph 32.2 mph N/A   Scattered Clouds
9:56 AM 55.0 °F - 30.9 °F 40% 30.12 in 10.0 mi NNE 18.4 mph - N/A   Mostly Cloudy
10:56 AM 57.9 °F - 30.0 °F 35% 30.12 in 10.0 mi NNE 16.1 mph - N/A   Mostly Cloudy
11:56 AM 60.1 °F - 30.9 °F 33% 30.11 in 10.0 mi North 9.2 mph 20.7 mph N/A   Mostly Cloudy
12:56 PM 61.0 °F - 27.0 °F 27% 30.08 in 10.0 mi NNE 11.5 mph 20.7 mph N/A   Scattered Clouds
1:56 PM 63.0 °F - 28.0 °F 27% 30.06 in 10.0 mi NNE 6.9 mph 18.4 mph N/A   Scattered Clouds
2:56 PM 64.0 °F - 27.0 °F 25% 30.06 in 10.0 mi North 11.5 mph 17.3 mph N/A   Clear
3:56 PM 64.0 °F - 26.1 °F 24% 30.05 in 10.0 mi North 8.1 mph - N/A   Partly Cloudy
4:56 PM 62.1 °F - 26.1 °F 25% 30.06 in 10.0 mi NNE 8.1 mph - N/A   Partly Cloudy
5:56 PM 57.0 °F - 28.9 °F 34% 30.07 in 10.0 mi NNW 5.8 mph - N/A   Partly Cloudy
6:56 PM 53.1 °F - 32.0 °F 45% 30.08 in 10.0 mi North 4.6 mph - N/A   Partly Cloudy
7:56 PM 50.0 °F - 33.1 °F 52% 30.09 in 10.0 mi Calm Calm - N/A   Partly Cloudy
8:56 PM 46.9 °F - 35.1 °F 63% 30.11 in 10.0 mi North 3.5 mph - N/A   Partly Cloudy
9:56 PM 46.0 °F 43.1 °F 36.0 °F 68% 30.12 in 10.0 mi North 5.8 mph - N/A   Partly Cloudy
10:56 PM 46.9 °F - 32.0 °F 56% 30.12 in 10.0 mi Calm Calm - N/A   Partly Cloudy
11:56 PM 43.0 °F 41.3 °F 32.0 °F 65% 30.11 in 10.0 mi North 3.5 mph - N/A   Clear